Home   Weather   Garbsen   Past weeks

Flag for Germany Past Weather in Garbsen, Lower Saxony, Germany — Yesterday and Last 2 Weeks

Now
41 °F

Light rain. Passing clouds.


Feels Like: 32 °F
Forecast: 33 / 44 °F
Wind: 17 mph from West

Location: Hannover

Current Time: Feb 24, 2017 at 2:49:34 am

Latest Report: Feb 24, 2017 at 2:20 am


Visibility: 6 mi

Pressure: 29.18 "Hg

Humidity: 87%

Dew Point: 37 °F

Location of GarbsenLocation

Past Weather in Garbsen — Graph

°F

Garbsen Temperature Yesterday

Maximum temperature yesterday: 50 °F (at 2:20 pm)
Minimum temperature yesterday: 43 °F (at 6:50 am)
Average temperature yesterday: 46 °F

High & Low Weather Summary for the Past Weeks

 TemperatureHumidityPressure
High54 °F (Feb 15, 1:50 pm)100% (Feb 17, 1:20 pm)30.57 "Hg (Feb 17, 1:20 pm)
Low23 °F (Feb 13, 7:50 am)38% (Feb 15, 1:50 pm)29.09 "Hg (Feb 23, 5:50 pm)
Average38 °F79%30.16 "Hg
* Reported Feb 9 1:20 am — Feb 24 1:50 am, Garbsen, Weather by CustomWeather, © 2017

Note: Actual official high and low records may vary slightly from our data, if they occured in-between our weather recording intervals... More about our weather records

Advertising

Garbsen Weather History for the Previous 24 Hours

Scroll right to see more
 ConditionsComfort  
Time TempWeatherWind HumidityBarometerVisibility
1:50 am
Fri, Feb 24
41 °FLight rain. Passing clouds.18 mph87%29.18 "Hg4 mi
1:20 am41 °FLight rain. Passing clouds.16 mph87%29.15 "HgN/A
12:50 am41 °FLight rain. Mostly cloudy.16 mph87%29.15 "HgN/A
12:20 am43 °FLight rain. Mostly cloudy.20 mph81%29.12 "HgN/A
11:50 pm
Thu, Feb 23
43 °FLight rain. Overcast.16 mph81%29.12 "HgN/A
11:20 pm43 °FLight rain. Mostly cloudy.21 mph81%29.12 "HgN/A
10:50 pm43 °FLight rain. Mostly cloudy.26 mph81%29.09 "Hg4 mi
10:20 pm43 °FLight rain. Mostly cloudy.21 mph81%29.09 "HgN/A
9:50 pm43 °FLight rain. Mostly cloudy.23 mph81%29.09 "HgN/A
9:20 pm43 °FLight rain. Passing clouds.22 mph87%29.09 "Hg5 mi
8:50 pm45 °FSprinkles. Passing clouds.24 mph81%29.09 "HgN/A
8:20 pm45 °FPassing clouds.23 mph76%29.09 "HgN/A
7:50 pm46 °FSprinkles. Partly cloudy.26 mph71%29.09 "HgN/A
7:20 pm45 °FPassing clouds.20 mph76%29.09 "HgN/A
6:50 pm45 °FSprinkles. Partly cloudy.17 mph87%29.12 "Hg3 mi
6:20 pm46 °FSprinkles. Partly cloudy.22 mph76%29.12 "HgN/A
5:50 pm48 °FSprinkles. Passing clouds.20 mph76%29.09 "HgN/A
5:20 pm48 °FScattered clouds.17 mph76%29.12 "HgN/A
4:50 pm46 °FSprinkles. Scattered clouds.26 mph82%29.12 "HgN/A
4:20 pm50 °FSprinkles. Partly sunny.23 mph76%29.12 "HgN/A
3:50 pm48 °FLight rain. Partly sunny.21 mph82%29.15 "HgN/A
3:20 pm50 °FLight rain. Partly sunny.17 mph76%29.18 "HgN/A
2:50 pm50 °FPartly sunny.17 mph82%29.21 "HgN/A
2:20 pm50 °FPartly sunny.14 mph82%29.24 "HgN/A
1:50 pm48 °FLight rain. Broken clouds.16 mph87%29.27 "HgN/A
1:20 pm48 °FLight rain. Mostly cloudy.16 mph87%29.30 "HgN/A
12:50 pm48 °FLight rain. Mostly cloudy.15 mph87%29.33 "HgN/A
12:20 pm48 °FLight rain. Mostly cloudy.15 mph87%29.36 "HgN/A
11:50 am48 °FLight rain. Mostly cloudy.13 mph87%29.36 "HgN/A
11:20 am48 °FLight rain. Mostly cloudy.13 mph87%29.39 "HgN/A
10:50 am46 °FLight rain. Cloudy.9 mph93%29.42 "Hg6 mi
10:20 am43 °FLight rain. More clouds than sun.8 mph100%29.42 "Hg4 mi
9:50 am43 °FLight rain. More clouds than sun.6 mph93%29.45 "Hg4 mi
9:20 am43 °FRain. More clouds than sun.5 mph93%29.47 "Hg5 mi
8:50 am43 °FRain. Overcast.7 mph93%29.47 "Hg6 mi
8:20 am43 °FLight rain. Overcast.6 mph93%29.50 "Hg5 mi
7:50 am43 °FLight rain. Overcast.6 mph93%29.50 "HgN/A
7:20 am43 °FLight rain. Overcast.6 mph93%29.50 "HgN/A
6:50 am43 °FLight rain. Overcast.7 mph87%29.53 "HgN/A
6:20 am45 °FLight rain. Passing clouds.5 mph87%29.53 "HgN/A
5:50 am45 °FLight rain. Partly cloudy.6 mph87%29.53 "HgN/A
5:20 am45 °FPartly cloudy.7 mph87%29.53 "HgN/A
4:50 am45 °FPartly cloudy.8 mph81%29.53 "HgN/A
4:20 am45 °FPartly cloudy.10 mph81%29.56 "HgN/A
3:50 am45 °FPartly cloudy.12 mph81%29.56 "HgN/A
3:20 am46 °FPassing clouds.14 mph76%29.56 "HgN/A
2:50 am46 °FPassing clouds.15 mph76%29.56 "HgN/A
2:20 am46 °FPassing clouds.15 mph76%29.56 "HgN/A
Weather by CustomWeather, © 2017

See weather overviewHow to use our weather pages